Location: Demmingen
(48.6757°N, 10.4375°E)
Time: 22:46:59
(UTC+00:00)

Cosmos 968 Rocket - Pass Details

Date: 23 May 2024
Orbit: 738 x 769 km, 74.0° (Epoch: 14 June)

Event Time Altitude Azimuth Distance (km) Brightness Sun altitude
Exits shadow 02:02:13 15° 216° (SW) 1,899 4.9 -11.3°
Maximum altitude 02:06:21 65° 296° (WNW) 819 3.6 -10.9°
Drops below altitude 10° 02:11:27 10° 18° (NNE) 2,272 7.1 -10.3°
Sets 02:13:51 0° 22° (NNE) 3,204 8.2 -10.0°
